Вернуться в каталог

FENGYUN 1C DEB

АктивенSSO
NORAD 38724·DEBRIS·🇨🇳 China

Запущен May 10, 1999 с Taiyuan Satellite Launch Center

Loading…

Ближайшие Пролёты (ближайшие 24 часа)

TLE

СвежийSource: Space-Track

Эпоха: Sep 14, 2026, 11:33 UTC

1 38724U 99025ETR 26257.48172686  .00005185  00000-0  23560-2 0  9990
2 38724  98.7326 266.5174 0120136   2.1398 358.0267 14.18439876605292

Отслеживайте FENGYUN 1C DEB в реальном времени с AllMySat

Download on the App Store